Location: Wildcat Hills Observatory
(41.6350°N, 103.6812°W)
Time: 20:04:03
(UTC-06:00)

Daily predictions for brighter satellites

Satellite Brightness Start Highest point End
(mag) Time Altitude Azimuth Time Altitude Azimuth Time Altitude Azimuth
IRS-1A Rocket 4.4 18:26:24 10° SSE 18:32:13 77° ENE 18:38:08 10° NNW
Cosmos 1809 Rocket 4.4 18:26:14 10° S 18:32:17 75° E 18:38:21 10° NNE
SL-16 R/B 2.2 18:30:41 10° NNW 18:36:21 66° ENE 18:42:00 10° SSE
Cosmos 1680 Rocket 4.2 18:31:12 10° SSW 18:36:25 61° WNW 18:41:38 10° NNE
Cosmos 1743 Rocket 4.2 18:34:23 10° N 18:38:23 34° ENE 18:42:22 10° SE
Cosmos 2151 3.9 18:37:37 10° NNE 18:41:19 28° ENE 18:44:59 10° SE
Cosmos 1766 Rocket 3.6 18:36:52 10° N 18:41:21 86° E 18:45:48 10° S
SL-14 R/B 3.3 18:41:03 10° N 18:44:55 83° W 18:48:45 10° S
Cosmos 1842 Rocket 4.2 18:41:52 10° SSE 18:45:56 35° E 18:50:00 10° NNE
H-2A R/B 4.5 18:44:51 10° E 18:47:04 15° ENE 18:49:17 10° NNE
MTI 3.8 18:44:26 10° NNE 18:47:40 86° WNW 18:50:52 10° SSW
Cosmos 1242 Rocket 4.0 18:48:06 10° SSW 18:51:33 43° WNW 18:55:04 10° N
SMAP 4.3 18:49:46 10° S 18:54:13 46° W 18:58:43 10° NNW
ISS -2.4 18:51:58 10° WNW 18:55:03 38° SW 18:58:07 10° SSE
Meteor 2-21 Rocket 4.5 18:49:53 10° S 18:55:59 87° E 19:02:05 10° N
FREGAT/IRIS 4.3 18:56:03 13° E 18:57:19 16° ENE 18:59:12 10° NNE
Cosmos 2221 3.7 18:54:23 10° SE 18:57:34 21° E 19:00:47 10° NE
Cosmos 2366 rocket 4.0 18:52:15 10° S 18:58:26 71° E 19:04:36 10° NNE
Cosmos 1500 Rocket 3.8 18:56:38 10° N 19:00:49 44° ENE 19:04:58 10° SSE
Cosmos 1315 Rocket 3.6 19:01:54 10° NNE 19:05:30 30° ENE 19:09:08 10° SE
METEOR-M 4.1 19:00:33 10° SSE 19:05:54 89° ENE 19:11:17 10° NNW
SPOT 3 Rocket 3.5 19:01:41 10° SSE 19:06:52 80° ENE 19:12:06 10° NNW
Cosmos 921 Rocket 3.8 19:03:53 10° N 19:07:52 31° ENE 19:11:46 10° SE
BREEZE-M DEB (TANK) 1.2 19:05:50 10° WNW 19:08:01 61° SW 19:09:31 15° SE
Cosmos 1461 4.1 19:09:28 10° WSW 19:13:18 42° NW 19:17:19 10° NNE
COSMOS 2428 3.7 19:08:38 10° N 19:13:23 26° NE 19:16:20 18° E
SL-8 Rocket 4.4 19:07:22 10° SSW 19:13:28 66° W 19:19:41 10° N
BREEZE-M DEB (TANK) 1.7 19:11:47 10° WSW 19:14:06 64° NNW 19:15:07 24° NE
Cosmos 2058 2.8 19:11:38 10° N 19:15:49 65° E 19:19:56 10° SSE
Cosmos 2056 Rocket 3.9 19:11:05 10° NNW 19:16:24 69° WSW 19:21:35 10° S
Cosmos 2333 Rocket 3.8 19:13:05 10° N 19:16:38 16° NE 19:18:02 15° ENE
DMSP B5D1-3 4.5 19:12:03 10° NNE 19:17:10 67° ESE 19:22:16 10° S
RESURS DK-1 2.7 19:16:13 10° NNW 19:20:12 44° ENE 19:23:04 17° SE
COSMO-SKYMED 1 3.0 19:16:00 10° N 19:20:19 66° WNW 19:24:37 10° SSW
Cosmos 1833 4.2 19:14:51 10° S 19:20:30 66° ESE 19:26:07 10° NNE
Cosmos 2360 Rocket 2.2 19:15:00 10° NNW 19:20:37 62° ENE 19:26:13 10° SE
Cosmos 1626 2.3 19:17:15 10° N 19:20:59 77° W 19:24:43 10° S
Cosmos 2098 Rocket 4.0 19:17:59 10° SE 19:21:31 27° E 19:25:49 10° NNE
NOAA 12 4.0 19:16:59 10° SSE 19:22:16 84° ENE 19:27:37 10° NNW
FengYun 1-2 T 4.4 19:18:47 10° SE 19:24:01 46° ENE 19:29:14 10° N
Meteor 2-1 Rocket 4.2 19:18:25 10° S 19:24:08 73° E 19:30:00 10° NNE
Cosmos 2219 4.2 19:21:11 10° SSE 19:25:44 25° ESE 19:27:40 21° ENE
Cosmos 2322 Rocket 3.2 19:21:17 10° NW 19:26:40 49° WSW 19:32:02 10° S
SL-24 R/B - RUBIN 2 3.8 19:23:20 10° NNW 19:28:11 54° NE 19:30:52 22° ESE
Lacrosse 5 rocket 3.8 19:26:26 10° WNW 19:29:28 18° NNW 19:32:25 10° NNE
SJ-6B 3.3 19:30:52 30° ESE 19:31:48 35° ENE 19:35:14 10° N
SL-8 R/B 3.7 19:27:07 10° SW 19:31:53 65° SE 19:34:26 27° ENE
Cosmos 1452 Rocket 3.4 19:29:06 10° NNW 19:34:21 70° ENE 19:39:35 10° SSE
BREEZE-M DEB (TANK) 4.1 19:30:15 10° WNW 19:34:43 76° NNE 19:47:49 18° ESE
Cosmos 1821 Rocket 4.2 19:30:20 10° SSE 19:36:07 46° E 19:42:00 10° NNE
Sich 1 4.5 19:32:48 10° NNE 19:35:07 21° NE 19:35:07 21° NE
Cosmos 1805 Rocket 4.0 19:34:50 10° N 19:38:54 37° ENE 19:39:44 34° ESE
Aureole 2 4.3 19:38:36 10° N 19:41:26 52° NE 19:41:26 52° NE
USA 267 3.4 19:37:01 19° ENE 19:41:45 53° SE 19:48:05 10° SSW
DELTA 2 R/B (1) 3.6 19:38:32 10° W 19:44:07 71° S 19:46:42 32° ESE
Atlas Centaur 2 3.5 19:40:11 10° SW 19:44:28 26° S 19:47:12 19° SE
Cosmos 2239 Rocket 4.5 19:39:10 10° SSE 19:45:05 54° E 19:51:03 10° NNE
Cosmos 1934 Rocket 4.3 19:39:34 10° SSE 19:45:26 42° E 19:51:21 10° NNE
Cosmos 2322 3.6 19:40:29 10° NNW 19:46:15 79° ENE 19:51:21 13° SSE
ALOS 2.9 19:43:45 10° S 19:48:19 57° W 19:52:56 10° NNW
Abrixas rocket 3.6 19:47:39 10° WNW 19:50:37 30° NNW 19:51:14 28° N
Spot 2 Rocket 4.4 19:51:35 28° NE 19:51:35 28° NE 19:55:15 10° N
Gbstr 26 Del rocket 4.3 19:46:16 10° NW 19:51:06 40° NNE 19:53:04 31° ENE
FENGYUN 3A 4.3 19:50:38 10° S 19:55:54 56° W 20:01:14 10° NNW
CZ-4C R/B 2.5 19:53:17 10° S 19:57:34 38° SE 19:57:34 38° SE
Cosmos 2123 Rocket 4.1 19:57:46 10° N 20:03:48 50° ENE 20:05:32 39° ESE
BREEZE-M DEB (TANK) 3.8 19:52:04 10° WNW 20:10:07 65° NNE 20:11:53 44° ENE
Cosmos 2219 Rocket 2.5 20:05:53 10° NNW 20:11:01 44° NE 20:11:01 44° NE
Thor Agena Rocket 4.1 20:07:10 10° N 20:12:11 58° WNW 20:17:08 10° SSW
Cosmos 1048 Rocket 3.8 20:10:42 10° SSW 20:15:51 86° ESE 20:19:09 23° NNE
USA 234 3.9 20:15:23 34° NE 20:16:53 39° NNE 20:22:51 10° NW
Iridium 4 Rocket 4.3 20:15:26 10° SSW 20:20:43 57° W 20:26:26 10° N
H-2A R/B 4.0 20:18:13 16° SSW 20:20:57 41° W 20:24:41 10° NNW
Cosmos 1420 Rocket 4.4 20:16:24 10° NNW 20:21:39 61° WSW 20:24:47 24° S
Cosmos 2333 4.1 20:15:59 10° NNW 20:21:44 81° ENE 20:22:47 61° SE
Envisat 3.4 20:26:30 47° NNE 20:26:30 47° NNE 20:30:19 10° N
Resurs 01 Rocket 2.8 20:27:35 33° N 20:27:35 33° N 20:30:05 10° N
Cosmos 44 4.2 20:23:56 10° SSW 20:26:23 33° SSW 20:26:23 33° SSW
Centaur D AC-28 4.4 20:28:37 10° SSW 21:06:22 - E 20:30:48 20° SSE
Cosmos 2221 4.3 20:31:03 10° SW 20:34:55 32° WNW 20:38:50 10° NNW
Cosmos 44 Rocket 4.2 20:34:30 10° SW 20:37:31 40° SW 20:37:31 40° SW
Cosmos 2237 Rocket 3.3 20:34:06 10° N 20:37:30 31° NNE 20:37:30 31° NNE
In-Cosmos 22 Rocket 4.3 20:35:26 10° N 20:40:21 66° N 20:40:21 66° N
SL-16 R/B 4.2 20:43:05 10° N 20:44:36 16° NNE 20:44:36 16° NNE
COSMOS 2428 3.4 20:52:26 10° NW 20:57:53 49° WSW 20:58:23 47° SW
Cosmos 2333 Rocket 2.9 20:55:55 10° NNW 21:00:03 49° NNW 21:00:03 49° NNW
Cosmos 2219 4.0 21:03:59 10° SW 21:09:32 48° WNW 21:09:45 48° NW
USA 267 3.8 21:24:24 50° NNW 21:24:42 50° NNW 21:30:57 10° WSW
CZ-3A R/B 4.0 21:11:12 10° NW 21:27:05 67° NNE 21:27:05 67° NNE
CZ-4C R/B 4.5 21:41:37 10° WSW 21:42:52 17° W 21:42:52 17° W
Cosmos 2219 Rocket 4.4 21:50:20 10° NW 21:52:46 21° WNW 21:52:46 21° WNW
